Weather History for Pocatello, ID

Change the Weather History Date:

Sunday, September 22, 2013

  Actual Average Record
Temperature  
Mean Temperature 58 °F 56 °F  
Max Temperature 67 °F 73 °F 92 °F (1966)
Min Temperature 49 °F 40 °F 23 °F (1995)
Degree Days  
Heating Degree Days 7 9  
Month to date heating degree days 47 118  
Since 1 July heating degree days 47 164  
Cooling Degree Days 0 0  
Month to date cooling degree days 61 20  
Year to date cooling degree days 688 390  
Growing Degree Days 7 (Base 50)    
Moisture  
Dew Point 37 °F    
Average Humidity 50    
Maximum Humidity 66    
Minimum Humidity 34    
Precipitation  
Precipitation 0.00 in 0.03 in 0.28 in (1941)
Month to date precipitation 0.74 0.60  
Year to date precipitation 4.77 8.67  
Snow  
Snow 0.00 in - - ()
Month to date snowfall 0.0  
Since 1 July snowfall 0.0  
Since 1 September snowfall 0.0  
Snow Depth 0.00 in    
Sea Level Pressure  
Sea Level Pressure 29.70 in    
Wind  
Wind Speed 18 mph (SW)    
Max Wind Speed 28 mph    
Max Gust Speed 35 mph    
Visibility 10 miles    
Events      
T = Trace of Precipitation, MM = Missing Value Source: NWS Daily Summary

Daily Weather History Graph

Daily Weather History Graph

Search for Another Location

Airport:

Trip Planner

Search our weather history database for the weather conditions in past years. The results will help you decide how hot, cold, wet, or windy it might be!

Date:

Astronomy

Sep. 22, 2013 Rise Set
Actual Time 7:17 AM MDT 7:27 PM MDT
Civil Twilight 6:49 AM MDT 7:55 PM MDT
Nautical Twilight 6:16 AM MDT 8:28 PM MDT
Astronomical Twilight 5:42 AM MDT 9:02 PM MDT
Moon 9:13 PM MDT (9/22) 10:47 AM MDT (9/22)
Length of Visible Light 13h 05m
Length of Day
12h 09m
Waning Gibbous, 88% of the Moon is Illuminated
Sep 22
Waning Gibbous
Sep 26
Last Quarter
Oct 4
New
Oct 11
First Quarter
Oct 18
Full

Hourly Weather History & Observations

Time (MDT) Temp. Dew Point Humidity Pressure Visibility Wind Dir Wind Speed Gust Speed Precip Events Conditions
12:17 AM 53.6 °F 37.4 °F 54% 29.70 in 10.0 mi SW 19.6 mph 27.6 mph N/A   Scattered Clouds
12:53 AM 53.1 °F 37.9 °F 57% 29.59 in 10.0 mi SW 17.3 mph - N/A   Clear
1:53 AM 52.0 °F 37.0 °F 57% 29.60 in 10.0 mi SW 19.6 mph - N/A   Clear
2:53 AM 52.0 °F 37.0 °F 57% 29.61 in 10.0 mi SW 13.8 mph - N/A   Clear
3:53 AM 51.1 °F 37.0 °F 59% 29.61 in 10.0 mi SSW 11.5 mph - N/A   Clear
4:53 AM 50.0 °F 37.0 °F 61% 29.63 in 10.0 mi SSW 10.4 mph - N/A   Clear
5:53 AM 50.0 °F 37.0 °F 61% 29.64 in 10.0 mi SSW 8.1 mph - N/A   Clear
6:53 AM 48.9 °F 37.0 °F 64% 29.66 in 10.0 mi SSW 10.4 mph - N/A   Clear
7:53 AM 50.0 °F 37.0 °F 61% 29.68 in 10.0 mi SW 12.7 mph 23.0 mph N/A   Partly Cloudy
8:36 AM 50.0 °F 39.2 °F 66% 29.80 in 10.0 mi WSW 15.0 mph 24.2 mph N/A   Mostly Cloudy
8:53 AM 50.0 °F 39.0 °F 66% 29.72 in 10.0 mi WSW 18.4 mph 23.0 mph N/A   Mostly Cloudy
9:53 AM 52.0 °F 39.9 °F 63% 29.72 in 10.0 mi WSW 16.1 mph - N/A   Mostly Cloudy
10:53 AM 55.9 °F 39.0 °F 53% 29.72 in 10.0 mi WSW 13.8 mph - N/A   Scattered Clouds
11:53 AM 59.0 °F 39.0 °F 48% 29.73 in 10.0 mi WSW 18.4 mph 23.0 mph N/A   Scattered Clouds
12:53 PM 61.0 °F 39.0 °F 44% 29.71 in 10.0 mi West 18.4 mph 25.3 mph N/A   Scattered Clouds
1:53 PM 63.0 °F 39.0 °F 41% 29.70 in 10.0 mi West 20.7 mph 26.5 mph N/A   Scattered Clouds
2:53 PM 64.9 °F 37.9 °F 37% 29.67 in 10.0 mi West 24.2 mph 29.9 mph N/A   Partly Cloudy
3:53 PM 66.0 °F 37.0 °F 34% 29.67 in 10.0 mi West 24.2 mph 29.9 mph N/A   Partly Cloudy
4:53 PM 66.0 °F 37.0 °F 34% 29.66 in 10.0 mi WSW 21.9 mph 32.2 mph N/A   Scattered Clouds
5:53 PM 64.0 °F 35.1 °F 34% 29.69 in 10.0 mi WSW 20.7 mph 27.6 mph N/A   Partly Cloudy
6:53 PM 59.0 °F 37.0 °F 44% 29.73 in 10.0 mi WSW 24.2 mph 31.1 mph N/A   Partly Cloudy
7:53 PM 55.9 °F 37.9 °F 51% 29.74 in 10.0 mi WSW 19.6 mph - N/A   Partly Cloudy
8:53 PM 55.0 °F 36.0 °F 49% 29.77 in 10.0 mi SW 19.6 mph - N/A   Clear
9:53 PM 53.1 °F 35.1 °F 50% 29.79 in 10.0 mi SSW 17.3 mph - N/A   Clear
10:53 PM 53.1 °F 34.0 °F 48% 29.79 in 10.0 mi SW 19.6 mph - N/A   Clear
11:53 PM 53.1 °F 33.1 °F 47% 29.80 in 10.0 mi WSW 17.3 mph - N/A   Partly Cloudy